Klawock, AK

4:04 AM AKDT on August 18, 2017 (GMT -0800)
Klawock

Weather History for PAKW - October, 2013

Change the Weather History Date:

Saturday, October 26, 2013

  Actual Average Record
Temperature  
Mean Temperature 48 °F -  
Max Temperature 54 °F 47 °F 55 °F (2003)
Min Temperature 41 °F 36 °F 28 °F (2004)
Degree Days  
Heating Degree Days 18    
Moisture  
Dew Point 46 °F    
Average Humidity 89    
Maximum Humidity 100    
Minimum Humidity 66    
Precipitation  
Precipitation 0.11 in - - ()
Sea Level Pressure  
Sea Level Pressure 30.26 in    
Wind  
Wind Speed 5 mph (SSW)    
Max Wind Speed 10 mph    
Max Gust Speed 17 mph    
Visibility 8 miles    
Events Rain    
Averages and records for this station are not official NWS values.
T = Trace of Precipitation, MM = Missing Value Source: NWS Daily Summary

Daily Weather History Graph

Daily Weather History Graph

Search for Another Location

Airport or City:

Trip Planner

Search our weather history database for the weather conditions in past years. The results will help you decide how hot, cold, wet, or windy it might be!

Date:

Astronomy

Oct. 26, 2013 Rise Set
Actual Time 7:46 AM AKDT 5:25 PM AKDT
Civil Twilight 7:07 AM AKDT 6:03 PM AKDT
Nautical Twilight 6:24 AM AKDT 6:46 PM AKDT
Astronomical Twilight 5:42 AM AKDT 7:29 PM AKDT
Moon 11:44 PM AKDT (10/26) 2:14 PM AKDT (10/26)
Length of Visible Light 10h 55m
Length of Day
9h 38m
Waning Gibbous, 51% of the Moon is Illuminated
Oct 26
Waning Gibbous
Oct 26
Last Quarter
Nov 3
New
Nov 9
First Quarter
Nov 17
Full

Hourly Weather History & Observations

Time (AKDT) Temp. Windchill Dew Point Humidity Pressure Visibility Wind Dir Wind Speed Gust Speed Precip Events Conditions
12:53 AM 51.1 °F - 46.9 °F 86% 30.21 in 10.0 mi Variable 5.8 mph - 0.00 in Rain Light Rain
1:53 AM 51.1 °F - 46.9 °F 86% 30.19 in 10.0 mi Variable 6.9 mph - 0.01 in   Overcast
2:11 AM 51.8 °F - 46.4 °F 82% 30.19 in 10.0 mi Variable 3.5 mph - N/A   Overcast
2:41 AM 51.8 °F - 46.4 °F 82% 30.18 in 10.0 mi Variable 5.8 mph - N/A   Overcast
2:53 AM 51.1 °F - 48.0 °F 89% 30.18 in 10.0 mi Variable 6.9 mph - 0.00 in Rain Light Rain
3:26 AM 51.8 °F - 48.2 °F 88% 30.17 in 10.0 mi Variable 6.9 mph - 0.00 in Rain Light Rain
3:53 AM 51.1 °F - 48.0 °F 89% 30.17 in 10.0 mi Variable 3.5 mph - 0.00 in   Overcast
4:53 AM 51.1 °F - 48.0 °F 89% 30.17 in 10.0 mi Variable 5.8 mph - 0.00 in   Overcast
5:53 AM 52.0 °F - 48.0 °F 86% 30.16 in 10.0 mi Variable 6.9 mph - N/A   Overcast
6:53 AM 52.0 °F - 48.0 °F 86% 30.16 in 10.0 mi SSE 5.8 mph - N/A   Overcast
7:53 AM 51.1 °F - 48.9 °F 92% 30.17 in 4.0 mi Variable 3.5 mph - 0.03 in Rain Light Rain
8:53 AM 51.1 °F - 50.0 °F 96% 30.19 in 2.0 mi Calm Calm - 0.04 in Rain Light Rain
9:05 AM 51.8 °F - 50.0 °F 94% 30.19 in 1.5 mi Variable 3.5 mph - 0.01 in Rain Light Rain
9:14 AM 51.8 °F - 50.0 °F 94% 30.19 in 3.0 mi Calm Calm - 0.01 in Rain Light Rain
9:31 AM 51.8 °F - 51.8 °F 100% 30.21 in 8.0 mi Calm Calm - 0.01 in   Overcast
9:49 AM 51.8 °F - 51.8 °F 100% 30.21 in 2.0 mi SSW 3.5 mph - 0.02 in Rain Light Rain
9:51 AM 51.8 °F - 51.8 °F 100% 30.21 in 1.8 mi SSW 4.6 mph - 0.02 in Rain Light Rain
9:53 AM 52.0 °F - 51.1 °F 97% 30.22 in 1.5 mi SW 5.8 mph - 0.02 in Rain Light Rain
10:02 AM 51.8 °F - 51.8 °F 100% 30.22 in 3.0 mi SSW 4.6 mph - 0.00 in Rain Light Rain
10:48 AM 50.0 °F - 48.2 °F 94% 30.25 in 10.0 mi Variable 5.8 mph - 0.01 in   Overcast
10:53 AM 48.9 °F - 48.0 °F 97% 30.25 in 10.0 mi SSW 5.8 mph - 0.01 in   Overcast
11:08 AM 48.2 °F - 46.4 °F 93% 30.25 in 10.0 mi WSW 10.4 mph 17.3 mph N/A   Mostly Cloudy
11:53 AM 51.1 °F - 46.9 °F 86% 30.27 in 10.0 mi South 4.6 mph - N/A   Partly Cloudy
12:09 PM 50.0 °F - 46.4 °F 87% 30.27 in 10.0 mi South 4.6 mph - N/A   Mostly Cloudy
2:53 PM 54.0 °F - 43.0 °F 66% 30.30 in 10.0 mi Variable 4.6 mph - N/A   Clear
3:53 PM 52.0 °F - 41.0 °F 66% 30.32 in 10.0 mi NW 5.8 mph - N/A   Clear
4:53 PM 50.0 °F - 41.0 °F 71% 30.33 in 10.0 mi West 3.5 mph - N/A   Clear
5:53 PM 48.9 °F - 41.0 °F 74% 30.37 in 10.0 mi Calm Calm - N/A   Clear
6:53 PM 45.0 °F - 39.9 °F 82% 30.38 in 10.0 mi Calm Calm - N/A   Clear
7:53 PM 42.1 °F - 39.9 °F 92% 30.41 in 10.0 mi Calm Calm - N/A   Partly Cloudy
8:53 PM 43.0 °F - 41.0 °F 93% 30.43 in 10.0 mi Calm Calm - N/A   Mostly Cloudy
9:53 PM 42.1 °F - 41.0 °F 96% 30.45 in 10.0 mi Calm Calm - N/A   Mostly Cloudy
10:53 PM 41.0 °F 39.0 °F 39.0 °F 93% 30.46 in 10.0 mi ENE 3.5 mph - N/A   Clear
11:53 PM 44.1 °F - 41.0 °F 89% 30.48 in 10.0 mi Calm Calm - N/A   Clear